Wind_Speed
8 7 6 4 5 6 5 7 8 10 11 11 11 12 14 15 15 15 17 18 19 20
7 7 5 4 5 5 6 8 9 9 9 10 11 13 14 16 17 17 19 21 21 22
7 5 4 5 5 5 7 8 9 9 9 10 11 13 14 16 18 19 20 21 23 25
7 7 6 4 4 4 6 6 7 7 8 9 11 12 14 16 18 21 23 23 24 28
8 6 4 3 3 4 3 3 4 6 8 8 9 11 13 15 16 19 22 23 23 27
6 5 4 2 1 0 2 3 4 6 8 10 12 13 14 16 18 19 21 23 25 27
7 6 5 3 1 1 3 5 7 9 11 12 13 14 16 16 17 21 25 26 26 27
7 6 4 2 1 3 6 8 9 12 13 13 14 16 15 18 21 24 26 26 26 26
6 4 3 2 4 6 8 9 11 13 14 16 17 18 19 20 22 24 25 27 28 27
5 3 2 4 6 8 10 12 13 14 16 18 21 22 22 22 23 25 25 25 27 28
4 2 3 6 8 10 13 14 16 17 19 21 23 23 23 25 26 26 27 26 26 28
1 2 5 8 11 13 15 17 19 20 22 24 25 23 24 26 27 29 30 30 26 26
2 5 8 10 13 15 17 19 21 24 24 25 26 25 25 28 30 29 30 28 27 25
5 7 10 14 15 17 20 21 23 24 26 26 26 27 29 27 28 30 29 26 26 24
Wind_Direction
221 221 229 238 250 256 267 269 268 265 270 278 275 271 277 280 280 280 276 274 272 273
221 223 223 238 266 276 274 276 277 277 280 283 280 280 279 280 283 285 284 284 284 280
212 217 225 237 248 272 286 284 286 299 305 303 299 295 289 287 290 288 288 285 281 277
194 210 222 235 256 264 268 282 289 294 293 295 294 293 292 291 292 288 288 285 281 279
184 191 179 181 231 265 281 298 316 319 322 318 308 300 294 293 292 291 291 292 289 287
143 143 142 166 152 257 327 330 335 323 315 314 315 313 308 303 300 299 299 299 296 292
140 135 129 131 137 346 337 340 335 330 327 326 320 311 307 301 298 298 299 298 295 294
134 131 139 127 43 2 358 349 336 329 327 319 314 315 308 304 305 306 305 304 302 299
134 131 106 56 16 357 344 336 326 323 317 315 316 314 309 309 309 309 307 306 307 305
129 117 58 10 351 338 331 322 320 317 313 311 312 315 315 313 310 310 308 306 303 301
129 92 3 342 333 327 321 315 313 313 312 309 313 318 316 315 312 312 312 307 303 298
105 0 335 330 322 315 308 308 311 312 313 314 314 317 317 316 310 308 308 309 304 299
338 331 319 312 312 312 311 309 313 314 315 313 307 310 306 304 304 300 301 301 298 297
325 317 316 315 317 317 316 313 308 304 305 303 302 303 304 304 300 299 298 295 295 293
Height
815 816 817 819 820 820 820 821 822 823 823 821 822 822 822 821 820 819 818 817 817 815
813 815 815 817 818 818 819 820 820 820 820 819 819 819 819 818 817 817 816 815 813 812
812 812 813 815 816 816 818 819 819 818 818 817 817 816 816 815 814 813 812 811 810 808
810 810 812 814 814 816 817 817 817 817 816 816 816 815 814 812 811 809 808 807 805 802
808 810 811 813 814 815 816 815 815 815 814 814 814 813 811 810 809 807 804 803 801 798
808 810 812 813 814 815 815 814 814 813 813 813 812 811 809 808 806 803 801 799 796 793
809 810 812 814 815 814 814 813 812 812 811 810 809 808 806 804 801 798 796 794 791 788
809 811 813 814 814 814 813 812 811 810 809 808 806 804 802 800 797 793 790 787 784 781
810 812 812 812 812 812 811 810 809 808 806 804 802 800 798 795 792 789 786 782 779 776
810 811 811 811 811 810 809 808 807 805 803 800 798 796 793 791 788 785 782 778 775 770
809 810 809 809 809 808 807 806 803 801 799 797 794 791 788 786 782 780 777 774 770 766
807 808 808 808 807 806 804 802 800 798 795 792 789 787 784 781 777 773 769 767 764 762
806 806 806 806 805 804 802 799 796 794 792 789 785 783 780 777 772 767 762 759 756 755
805 805 805 804 803 801 798 795 793 790 788 785 783 779 776 773 768 763 757 753 749 748